Other Surface Observations
Issued by NWS Upton, NY

Home | Current Version | Previous Version | Text Only | Print | Product List | Glossary On
Versions: 1 2 3 4 5 6 7 8 9 10 11 12 13 14 15 16 17 18 19 20 21 22 23 24 25 26 27 28 29 30 31 32 33 34 35 36 37 38 39 40 41 42 43 44 45 46 47 48 49 50
000
SXUS51 KOKX 260057
OSOOKX
New York City Metropolitan Area Weather Roundup
National Weather Service New York NY
900 PM EDT WED APR 25 2018

CITY           SKY/WX    TMP DP  RH WIND       PRES   REMARKS
Central Park   CLOUDY    56  55  97 SE5       29.69S FOG
LaGuardia Arpt DRZL/FOG  53  52  96 NE8       29.66S VSB 1/4
Kennedy Intl   FOG       53  53 100 CALM      29.68S VSB 1/4
Newark Liberty FOG       55  55 100 E5        29.66F VSB 1/2
Teterboro Arpt FOG       56  56 100 NE3       29.65F VSB 1
Bronx Bot Gard   N/A     54  52  94 N8        29.68S
Bronx Lehman C   N/A     54  54 100 E6          N/A
Queens College   N/A     55  54  94 E1          N/A
Breezy Point     N/A     50 N/A N/A NE3         N/A
Brooklyn Coll    N/A     52  52 100 E5          N/A
Staten Island    N/A     55  55 100 NE2         N/A

>>>>>>>>>>>>>>>>>>>>>>>>>>>>>>>>> KEY <<<<<<<<<<<<<<<<<<<<<<<<<<<<<<<
> SKY/WX - Sky Condition/Present    : R : WCI - Wind Chill Index    <
>          Weather                  : E : VSB - Visibility in Miles <
> TMP    - Temperature in Deg F     : M : HX  - Heat Index          <
> DP     - Dew Point Temperature    : A : TC  - Temperature in      <
> RH     - Relative Humidity        : R :       Celsius             <
> WIND   - Direction/Speed (mph)    : K : VRB - Variable Wind Dir   <
> PRES   - Pressure (in Hg)         : S :                           <
>>>>>>>>>>>>>>>>>>>>>>>>>>>>>>>>> KEY <<<<<<<<<<<<<<<<<<<<<<<<<<<<<<<



USA.gov is the U.S. government's official web portal to all federal, state and local government web resources and services.